Simultaneous Nadir Overpasses (SNOs) Predictions

Prediction of SNOs between GOES-15 and METOP-B Satellite Orbit:

Table of predicted SNOs for the next 14.0 days since TLE Epoch: 8/15/2025
Index Date Time (GOES-15) GOES-15 Lat,Lon METOP-B Lat,Lon Distance(km) Time Diff (sec)
1 08/16/2025 05:14:21 0.17, 61.55 1.06, 57.56 455.14 80
2 08/17/2025 04:51:04 0.13, 61.57 -0.09, 62.53 109.18 80
3 08/18/2025 17:12:45 -0.19, 61.71 -1.01, 57.92 431.17 80
4 08/19/2025 16:49:26 -0.15, 61.72 0.09, 62.90 133.15 80
5 08/21/2025 05:11:00 0.21, 61.65 0.93, 58.31 380.22 80
6 08/22/2025 04:47:42 0.16, 61.67 -0.22, 63.28 183.94 80
7 08/23/2025 17:09:22 -0.22, 61.80 -0.94, 58.68 356.63 80
8 08/24/2025 16:46:05 -0.18, 61.82 0.22, 63.64 207.77 80
9 08/26/2025 05:07:37 0.24, 61.74 0.85, 59.06 305.25 80
10 08/27/2025 04:44:20 0.20, 61.76 -0.31, 64.03 258.90 80
11 08/28/2025 17:06:01 -0.26, 61.90 -0.78, 59.42 282.19 80
12 08/29/2025 16:42:43 -0.22, 61.92 0.32, 64.40 281.77 80
